Flag for Canada Weather past 2 weeks in Corner Brook, Newfoundland and Labrador, Canada

Now
34 °F

Light rain. Overcast.


Feels Like: 22 °F
Forecast: 29 / 44 °F
Wind: 20 mph from Northeast

Location: Deer Lake


UV Index: 3 (Moderate)

Visibility: 15 mi


Pressure: 29.65 "Hg

Humidity: 87%

Dew point: 30 °F

Location of Corner BrookLocation

Historic Weather in Corner Brook

°F

Corner Brook temperature yesterday

Maximum temperature yesterday: 36 °F (at 12:30 PM)
Minimum temperature yesterday: 30 °F (at 2:30 AM)
Average temperature yesterday: 33 °F

Past Weeks' High & Low Weather Summary

 TemperatureHumidityPressure
High55 °F (Apr 16, 12:30 PM)100% (Apr 15, 4:30 AM)30.78 "Hg (Apr 15, 4:30 AM)
Low12 °F (Apr 14, 4:30 AM)26% (Apr 21, 3:30 PM)29.34 "Hg (Apr 10, 3:30 AM)
Average34 °F71%30.04 "Hg
* Reported Apr 10 3:30 AM — Apr 25 3:30 AM, Corner Brook, Weather by CustomWeather, © 2014

Note: Actual official high and low records may vary slightly from our data, if they occured in-between our weather recording intervals... More about our weather records

Advertising

Historic Weather Conditions — Data for Previous 24 hours

 ConditionsComfort  
Time TempWeatherWind HumidityBarometerVisibility
3:30 AM
Apr 25
34 °FOvercast.22 mph87%29.67 "Hg15 mi
2:30 AM34 °FOvercast.23 mph81%29.69 "Hg15 mi
1:30 AM32 °FLight snow. Overcast.16 mph87%29.72 "Hg15 mi
12:30 AM32 °FChilly.14 mph87%29.74 "HgN/A
11:30 PM
Apr 24
32 °FLight snow. Overcast.18 mph87%29.75 "Hg15 mi
10:30 PM32 °FLight snow. Overcast.21 mph87%29.77 "Hg15 mi
9:30 PM32 °FMostly cloudy.21 mph80%29.78 "Hg15 mi
8:30 PM34 °FOvercast.22 mph75%29.78 "Hg15 mi
7:30 PM34 °FOvercast.25 mph70%29.78 "Hg15 mi
6:30 PM34 °FOvercast.20 mph75%29.78 "Hg15 mi
5:30 PM36 °FOvercast.22 mph70%29.78 "Hg15 mi
4:30 PM36 °FOvercast.25 mph70%29.79 "Hg15 mi
3:30 PM36 °FOvercast.26 mph70%29.79 "Hg15 mi
2:30 PM36 °FOvercast.31 mph70%29.81 "Hg15 mi
1:30 PM36 °FOvercast.23 mph70%29.82 "Hg15 mi
12:30 PM36 °FOvercast.28 mph70%29.81 "Hg15 mi
11:30 AM34 °FOvercast.29 mph70%29.83 "Hg15 mi
10:30 AM34 °FOvercast.25 mph70%29.85 "Hg15 mi
9:30 AM34 °FOvercast.23 mph70%29.85 "Hg15 mi
8:30 AM32 °FOvercast.26 mph75%29.84 "Hg15 mi
7:30 AM32 °FOvercast.22 mph75%29.84 "Hg15 mi
6:30 AM32 °FOvercast.15 mph75%29.83 "Hg15 mi
5:30 AM32 °FPassing clouds.17 mph75%29.82 "Hg15 mi
Weather by CustomWeather, © 2014

See weather overview